Preview of NWS' New Version of Forecast
This preview is not operational and should not be used for support decisions.

Regional Weather Roundup (RWR)

Issued by National Weather Service (NWS)

                            
000
ASUS43 KDMX 211401
RWRIA 

WEATHER ROUNDUP FOR IOWA
NATIONAL WEATHER SERVICE DES MOINES IA
800 AM CST THU FEB 21 2019

NOTE: "FAIR" INDICATES FEW OR NO CLOUDS BELOW 12,000 FEET WITH NO
SIGNIFICANT WEATHER AND/OR OBSTRUCTIONS TO VISIBILITY.

* - THESE STATIONS ARE NOT NWS STATIONS...THUS NOT UNDER NWS
QUALITY CONTROL.  THEY ALSO DO NOT REPORT WEATHER SUCH 
AS PRECIPITATION OR FOG.  

IAZ001>003-012>014-020>022-031>034-043>046-211500-
   NORTHWEST IOWA
  
CITY           SKY/WX    TMP DP  RH WIND       PRES   REMARKS
CARROLL *      CLOUDY     5   5 100 W3        30.14R                  
CHEROKEE *     CLOUDY    -4  -6  91 CALM      30.12R FOG              
DENISON *      CLOUDY     0  -4  85 CALM      30.16R FOG              
LE MARS *      CLOUDY    -6  -9  84 S7        30.14R FOG     WCI -20  
ORANGE CITY *  LGT SNOW   3   1  92 NW7       30.09R WCI  -9          
SHELDON *      CLOUDY    -2  -2 100 CALM      30.07R FOG              
SIOUX CITY     CLOUDY    -7 -10  87 CALM      30.16R                  
SPENCER        CLOUDY     5   0  79 NW5       30.08R WCI  -4          
STORM LAKE *   CLOUDY     5   3  92 SW6       30.09R FOG     WCI  -6  
$$
 
IAZ055>058-069>071-079>083-090>094-211500-
   SOUTHWEST IOWA
  
CITY           SKY/WX    TMP DP  RH WIND       PRES   REMARKS
ATLANTIC *     CLOUDY    -4  -6  92 N5        30.16R FOG     WCI -15  
AUDUBON *      LGT SNOW  -2  -6  84 CALM      30.15R                  
CLARINDA *     PTCLDY     0  -4  85 NE3       30.19R                  
COUNCIL BLFS * CLOUDY    10  12 100 W3        30.14R FOG              
CRESTON *      CLOUDY    12  10  92 NW6       30.15R WCI   3          
HARLAN  *      CLOUDY     0  -2  92 NE5       30.15R FOG     WCI -10  
LAMONI         PTCLDY    14  10  84 CALM      30.14R                  
RED OAK *      CLOUDY     1   0  92 CALM      30.17R FOG              
SHENANDOAH *   CLOUDY     0  -2  92 CALM      30.18R                  
$$
 
IAZ047>049-059>061-072>074-084-211500-
   CENTRAL IOWA
  
CITY           SKY/WX    TMP DP  RH WIND       PRES   REMARKS
AMES           CLOUDY     2   1  96 W5        30.15R FOG     WCI  -8  
ANKENY *       CLOUDY    14  10  85 SW3       30.18R FOG              
BOONE *        CLOUDY     9   9 100 SW8       30.13R FOG     WCI  -4  
CHARITON *     CLOUDY     9   7  92 CALM      30.16R FOG              
DES MOINES     CLOUDY    12  10  92 W6        30.17R FOG     WCI   3  
GRINNELL*      CLOUDY    12  10  92 W3        30.16R FOG              
KNOXVILLE *    CLOUDY    14  14 100 W7        30.16R WCI   4          
MARSHALLTOWN   CLOUDY     6   6 100 SW5       30.14R FOG     WCI  -3  
NEWTON *       CLOUDY    10  10 100 W8        30.16R FOG     WCI  -1  
PELLA *        CLOUDY    15  11  85 W3        30.18R FOG              
PERRY *        FAIR       4   2  93 W7        30.16R FOG     WCI  -8  
$$
 
IAZ004>006-015-016-023>025-035-036-211500-
   NORTH CENTRAL IOWA
  
CITY           SKY/WX    TMP DP  RH WIND       PRES   REMARKS
ALGONA *       CLOUDY     1   0  92 W5        30.07R WCI  -8          
CLARION *      CLOUDY     0  -4  85 CALM      30.11R FOG              
ESTHERVILLE    CLOUDY    -2  -4  91 NW12      30.07R WCI -20          
FORT DODGE *   CLOUDY     4   2  91 CALM      30.12R FOG              
MASON CITY     CLOUDY     6   3  87 W12       30.09R WCI  -9          
FOREST CITY *  FAIR       5   3  92 W6        30.08R WCI  -6          
IOWA FALLS *   FAIR       2  -1  86 W3        30.13R FOG              
$$

IAZ007>011-017>019-026>030-037>042-050>054-066-211500-
   NORTHEAST IOWA
  
CITY           SKY/WX    TMP DP  RH WIND       PRES   REMARKS
CEDAR RAPIDS   FAIR       7   7 100 S3        30.14R FOG              
CHARLES CITY * FAIR       7   3  85 W10       30.10R WCI  -8          
CLINTON *      FAIR      17  13  84 W9        30.17R WCI   6          
DECORAH *      FAIR       9   9 100 VRB7G13   30.06R WCI  -3          
DUBUQUE        FAIR      12   7  80 W9        30.10R HAZE    WCI   0  
OELWEIN *      FAIR       5   5 100 SW9       30.12R WCI  -9          
WATERLOO       FAIR       8   5  87 W7        30.13R FOG     WCI  -3  
$$
 
IAZ064-065-067-068-078-211500-
   EAST CENTRAL IOWA
  
CITY           SKY/WX    TMP DP  RH WIND       PRES   REMARKS
DAVENPORT      FAIR      18  13  80 W10       30.18R WCI   6          
IOWA CITY      FAIR      12  11  95 CALM      30.19R FOG              
MT. PLEASANT * CLOUDY    23  19  86 W5        30.20R WCI  17          
MUSCATINE *    FAIR      19  16  86 W6        30.20R WCI  11          
QUAD CITIES    FAIR      23  17  78 W8        30.17R WCI  14          
$$
 
IAZ062-063-075>077-085>089-095>099-211500-
   SOUTHEAST IOWA
  
CITY           SKY/WX    TMP DP  RH WIND       PRES   REMARKS
BURLINGTON     CLOUDY    21  16  81 CALM      30.19R                  
FAIRFIELD *    CLOUDY    16  12  86 W6        30.18R WCI   7          
FORT MADISON * CLOUDY    21  18  86 CALM      30.20R                  
KEOKUK *       MOSUNNY   23  19  86 W5        30.20R WCI  17          
OSKALOOSA *    FAIR      11   8  90 SW5       30.18R FOG     WCI   3  
OTTUMWA        CLOUDY     9   8  96 S7        30.17R FOG     WCI  -2  
WASHINGTON *   CLOUDY    14  12  92 SW7       30.20R FOG     WCI   4  
$$

ABBREVIATIONS USED IN REMARKS
   TC - TEMPERATURES IN CELSIUS
  WCI - WIND CHILL INDEX
   HX - HEAT INDEX
  VSB - VISIBILITY  
$$